Regional Weather Roundup
Issued by NWS New Orleans/Baton Rouge, LA

Home | Current Version | Previous Version | Text Only | Print | Product List | Glossary On
Versions: 1 2 3 4 5 6 7 8 9 10 11 12 13 14 15 16 17 18 19 20 21 22 23 24 25 26 27 28 29 30 31 32 33 34 35 36 37 38 39 40 41 42 43 44 45 46 47 48 49 50
000
ASUS44 KLIX 061611
RWRLIX
NEW ORLEANS REGIONAL WEATHER ROUNDUP
NATIONAL WEATHER SERVICE NEW ORLEANS LA
1100 AM CDT MON JUL 06 2015

NOTE: "FAIR" INDICATES FEW OR NO CLOUDS BELOW 12,000 FEET WITH NO
      SIGNIFICANT WEATHER AND/OR OBSTRUCTIONS TO VISIBILITY.
      SKY/WX - SKY CONDITION AND SIGNIFICANT WEATHER.
      TMP - AIR TEMPERATURE.     DP    - DEWPOINT TEMPERATURE.
      RH  - RELATIVE HUMIDITY.   PRES  - PRESSURE.
      HI  - HEAT INDEX.          WCI   - WIND CHILL INDEX.

*  THESE STATIONS ARE NOT NWS OR FAA STATIONS AND ARE NOT UNDER
   NWS QUALITY CONTROL.

LAZ038-040-048-061>063-065>067-069-061700-
SOUTHEAST LOUISIANA

CITY           SKY/WX    TMP DP  RH WIND       PRES   REMARKS
N.O. AUDUBON     N/A     88  79  74 MISG        N/A  HX 102
N.O. INTL ARPT CLOUDY    86  76  71 SE6       30.17F HX  96
N.O. LAKEFRONT   N/A     87  75  67 SE6       30.18F HX  96
N.O. DOWNTOWN*   N/A     88  75  66 S6        30.19S HX  97
RESERVE*       CLOUDY    88  77  70 S8        30.17S HX  99
SLIDELL          N/A     83  77  82 SE6       30.18S
BATON ROUGE      N/A     83  76  79 S7        30.16S
BOOTHVILLE       N/A     86  75  69 SE3       30.19S HX  95
BELLE CHASSE   CLOUDY    85  76  74 VRB3      30.17S
BOGALUSA*        N/A     84  73  68 SE6       30.20F
GALLIANO*      PTSUNNY   90  75  62 S7        30.17S HX 100
NEW ROADS*       N/A    N/A N/A N/A S6        30.16S
GONZALES*        N/A     84  79  85 S6        30.16S HX  97
HAMMOND*         N/A     84  75  74 SE7       30.19S
HOUMA*         PTSUNNY   88  77  70 SW9       30.17S HX 100
PORT FOURCHON* PTSUNNY   88  77  70 S10       30.18S HX 100

$$

MSZ070-080>082-061700-
SOUTHERN MISSISSIPPI

CITY           SKY/WX    TMP DP  RH WIND       PRES   REMARKS
MCCOMB         CLOUDY    82  75  79 S10       30.18F
GULFPORT         N/A     83  71  67 E5        30.18F
BILOXI         NOT AVBL
PASCAGOULA       N/A     85  73  67 MISG      30.19S
STENNIS ARPT*  SUNNY     82  70  65 MISG      30.19S

$$

COASTAL OBSERVATIONS
LAKE AND NEARSHORE STATIONS

STATION/POSITION TIME  TEMP    WIND        PRES    WAVE
                       AIR SEA DIR/SP/G            HT/PER
                 (UTC) (F)     (DEG/KT/KT) (MB)    (FT/S)
PASCAGOULA       1500   84     120/  2/  4 1022.0
WAVELAND YACHT   1500   80 82  120/  5/  6 1022.5
GRAND ISLE       1500   86 85  160/  5/  8 1021.9
SOUTHWEST PASS   1500   87 82  140/  2/  2 1022.5
NEW CANAL        1500   84 83     CALM     1021.1
SHELL BEACH      1500   82 83  140/  5/  8 1021.5

OFFSHORE STATIONS

STATION/POSITION TIME  TEMP    WIND        PRES    WAVE
                       AIR SEA DIR/SP/G            HT/PER
                 (UTC) (F)     (DEG/KT/KT) (MB)    (FT/S)
64 S DAUPHIN ISL 1550   84 85  190/  2/  4 1022.6    1/ 5

$$



USA.gov is the U.S. government's official web portal to all federal, state and local government web resources and services.